| time (UTC) | temp F | wind direction | speed MPH | gust MPH | rain 1hr in | rain 24hr in | rain mn in | humidity % | barometer mb |
| 20260902114728 | 79 | 109 | 0.0 | 0.0 | 0.00 | 0.00 | 0.00 | 69 | 1015.1 |
| 20260902114218 | 79 | 108 | 0.0 | 0.0 | 0.00 | 0.00 | 0.00 | 69 | 1015.1 |
| 20260902113708 | 79 | 107 | 0.0 | 0.0 | 0.00 | 0.00 | 0.00 | 69 | 1015.1 |
| 20260902113158 | 79 | 107 | 0.0 | 0.0 | 0.00 | 0.00 | 0.00 | 69 | 1015.0 |
| 20260902112648 | 79 | 107 | 0.0 | 0.0 | 0.00 | 0.00 | 0.00 | 69 | 1015.0 |
| 20260902112637 | 79 | 107 | 0.0 | 4.0 | 0.00 | 0.00 | 0.00 | 69 | 1014.9 |
| 20260902111627 | 80 | 107 | 1.0 | 4.0 | 0.00 | 0.00 | 0.00 | 68 | 1015.0 |
| 20260902111122 | 80 | 109 | 1.0 | 4.0 | 0.00 | 0.00 | 0.00 | 68 | 1015.0 |
| 20260902110612 | 80 | 106 | 1.0 | 4.0 | 0.00 | 0.00 | 0.00 | 68 | 1015.0 |
| 20260902105552 | 80 | 106 | 0.0 | 2.0 | 0.00 | 0.00 | 0.00 | 68 | 1015.0 |
| 20260902105042 | 80 | 105 | 0.0 | 2.0 | 0.00 | 0.00 | 0.00 | 67 | 1015.1 |
| 20260902104533 | 80 | 105 | 0.0 | 3.0 | 0.00 | 0.00 | 0.00 | 67 | 1015.1 |
| 20260902104023 | 80 | 104 | 1.0 | 3.0 | 0.00 | 0.00 | 0.00 | 67 | 1015.1 |
| 20260902103512 | 80 | 104 | 1.0 | 4.0 | 0.00 | 0.00 | 0.00 | 67 | 1015.1 |
| 20260902103002 | 80 | 106 | 1.0 | 4.0 | 0.00 | 0.00 | 0.00 | 67 | 1015.1 |
| 20260902102452 | 80 | 116 | 0.0 | 3.0 | 0.00 | 0.00 | 0.00 | 67 | 1015.0 |
| 20260902101943 | 80 | 122 | 1.0 | 3.0 | 0.00 | 0.00 | 0.00 | 66 | 1014.9 |
| 20260902101430 | 81 | 126 | 1.0 | 3.0 | 0.00 | 0.00 | 0.00 | 66 | 1014.9 |
| 20260902100921 | 81 | 142 | 0.0 | 3.0 | 0.00 | 0.00 | 0.00 | 66 | 1014.9 |
| 20260902100911 | 81 | 142 | 1.0 | 3.0 | 0.00 | 0.00 | 0.00 | 66 | 1014.9 |
| 20260902095901 | 81 | 142 | 1.0 | 3.0 | 0.00 | 0.00 | 0.00 | 65 | 1015.0 |
| 20260902095350 | 81 | 151 | 1.0 | 4.0 | 0.00 | 0.00 | 0.00 | 65 | 1015.0 |
| 20260902094838 | 81 | 153 | 0.0 | 4.0 | 0.00 | 0.00 | 0.00 | 65 | 1014.9 |
| 20260902094328 | 81 | 221 | 0.0 | 1.0 | 0.00 | 0.00 | 0.00 | 65 | 1014.9 |
| 20260902093818 | 82 | 221 | 0.0 | 0.0 | 0.00 | 0.00 | 0.00 | 64 | 1014.9 |
| 20260902093309 | 82 | 220 | 0.0 | 0.0 | 0.00 | 0.00 | 0.00 | 64 | 1014.9 |
| 20260902092759 | 82 | 220 | 0.0 | 0.0 | 0.00 | 0.00 | 0.00 | 64 | 1014.9 |
| 20260902092248 | 82 | 220 | 0.0 | 0.0 | 0.00 | 0.00 | 0.00 | 63 | 1014.9 |
| 20260902092238 | 82 | 220 | 0.0 | 0.0 | 0.00 | 0.00 | 0.00 | 63 | 1014.9 |
| 20260902091234 | 82 | 218 | 0.0 | 2.0 | 0.00 | 0.00 | 0.00 | 62 | 1015.0 |
| 20260902091228 | 82 | 218 | 0.0 | 2.0 | 0.00 | 0.00 | 0.00 | 62 | 1014.9 |
| 20260902090218 | 82 | 218 | 0.0 | 6.0 | 0.00 | 0.00 | 0.00 | 62 | 1015.0 |
| 20260902085708 | 82 | 218 | 1.0 | 6.0 | 0.00 | 0.00 | 0.00 | 62 | 1014.9 |
| 20260902085652 | 83 | 176 | 2.0 | 6.0 | 0.00 | 0.00 | 0.00 | 62 | 1014.9 |
| 20260902084638 | 83 | 143 | 2.0 | 7.0 | 0.00 | 0.00 | 0.00 | 62 | 1014.9 |
| 20260902084630 | 83 | 188 | 3.0 | 7.0 | 0.00 | 0.00 | 0.00 | 61 | 1014.9 |
| 20260902083616 | 83 | 150 | 3.0 | 8.0 | 0.00 | 0.00 | 0.00 | 61 | 1014.8 |
| 20260902083109 | 83 | 188 | 3.0 | 7.0 | 0.00 | 0.00 | 0.00 | 61 | 1014.8 |
| 20260902082600 | 83 | 176 | 3.0 | 7.0 | 0.00 | 0.00 | 0.00 | 61 | 1014.9 |
| 20260902082053 | 83 | 182 | 3.0 | 10.0 | 0.00 | 0.00 | 0.00 | 61 | 1014.9 |
| 20260902081543 | 83 | 157 | 4.0 | 10.0 | 0.00 | 0.00 | 0.00 | 61 | 1014.9 |
| 20260902081040 | 83 | 152 | 5.0 | 10.0 | 0.00 | 0.00 | 0.00 | 60 | 1014.9 |
| 20260902080534 | 83 | 202 | 4.0 | 10.0 | 0.00 | 0.00 | 0.00 | 60 | 1015.0 |
| 20260902080021 | 84 | 149 | 4.0 | 10.0 | 0.00 | 0.00 | 0.00 | 60 | 1015.0 |
| 20260902075516 | 84 | 157 | 4.0 | 8.0 | 0.00 | 0.00 | 0.00 | 60 | 1014.9 |
| 20260902075017 | 84 | 157 | 4.0 | 11.0 | 0.00 | 0.00 | 0.00 | 60 | 1015.0 |
| 20260902074516 | 84 | 161 | 4.0 | 11.0 | 0.00 | 0.00 | 0.00 | 60 | 1015.0 |
| 20260902074013 | 84 | 164 | 5.0 | 10.0 | 0.00 | 0.00 | 0.00 | 59 | 1014.9 |
| 20260902073514 | 84 | 183 | 5.0 | 11.0 | 0.00 | 0.00 | 0.00 | 59 | 1015.0 |
| 20260902073017 | 84 | 146 | 5.0 | 11.0 | 0.00 | 0.00 | 0.00 | 59 | 1015.1 |
| 20260902073013 | 84 | 152 | 5.0 | 11.0 | 0.00 | 0.00 | 0.00 | 59 | 1015.0 |
| 20260902072013 | 84 | 153 | 5.0 | 12.0 | 0.00 | 0.00 | 0.00 | 59 | 1015.1 |
| 20260902071515 | 85 | 161 | 5.0 | 15.0 | 0.00 | 0.00 | 0.00 | 58 | 1015.1 |
| 20260902071511 | 84 | 139 | 5.0 | 12.0 | 0.00 | 0.00 | 0.00 | 59 | 1015.1 |
| 20260902071008 | 85 | 167 | 6.0 | 15.0 | 0.00 | 0.00 | 0.00 | 58 | 1015.0 |
| 20260902070007 | 85 | 153 | 6.0 | 14.0 | 0.00 | 0.00 | 0.00 | 58 | 1015.0 |
| 20260902065506 | 85 | 146 | 5.0 | 13.0 | 0.00 | 0.00 | 0.00 | 58 | 1015.0 |
| 20260902065004 | 85 | 170 | 5.0 | 11.0 | 0.00 | 0.00 | 0.00 | 58 | 1015.0 |
| 20260902064505 | 85 | 157 | 6.0 | 13.0 | 0.00 | 0.00 | 0.00 | 58 | 1015.0 |
| 20260902064000 | 85 | 134 | 6.0 | 13.0 | 0.00 | 0.00 | 0.00 | 58 | 1015.0 |
| 20260902063446 | 85 | 181 | 6.0 | 12.0 | 0.00 | 0.00 | 0.00 | 58 | 1014.9 |
| 20260902063440 | 85 | 153 | 6.0 | 12.0 | 0.00 | 0.00 | 0.00 | 58 | 1014.9 |
| 20260902062430 | 85 | 143 | 6.0 | 14.0 | 0.00 | 0.00 | 0.00 | 58 | 1014.9 |
| 20260902061926 | 85 | 159 | 5.0 | 14.0 | 0.00 | 0.00 | 0.00 | 58 | 1014.8 |
| 20260902061919 | 85 | 169 | 5.0 | 13.0 | 0.00 | 0.00 | 0.00 | 58 | 1014.8 |
| 20260902060912 | 85 | 157 | 6.0 | 13.0 | 0.00 | 0.00 | 0.00 | 58 | 1014.8 |
| 20260902060906 | 85 | 162 | 7.0 | 16.0 | 0.00 | 0.00 | 0.00 | 57 | 1014.7 |
| 20260902060511 | 85 | 213 | 7.0 | 16.0 | 0.00 | 0.00 | 0.00 | 58 | 1014.8 |
| 20260902055357 | 85 | 138 | 6.0 | 15.0 | 0.00 | 0.00 | 0.00 | 57 | 1014.7 |
| 20260902054850 | 86 | 148 | 6.0 | 15.0 | 0.00 | 0.00 | 0.00 | 57 | 1014.7 |
| 20260902054339 | 86 | 168 | 5.0 | 15.0 | 0.00 | 0.00 | 0.00 | 57 | 1014.6 |
| 20260902053829 | 86 | 128 | 6.0 | 15.0 | 0.00 | 0.00 | 0.00 | 57 | 1014.6 |
| 20260902053317 | 86 | 130 | 7.0 | 15.0 | 0.00 | 0.00 | 0.00 | 56 | 1014.6 |
| 20260902052808 | 86 | 145 | 7.0 | 15.0 | 0.00 | 0.00 | 0.00 | 56 | 1014.6 |
| 20260902052259 | 86 | 139 | 7.0 | 16.0 | 0.00 | 0.00 | 0.00 | 56 | 1014.6 |
| 20260902051750 | 87 | 138 | 7.0 | 16.0 | 0.00 | 0.00 | 0.00 | 56 | 1014.4 |
| 20260902051732 | 87 | 127 | 7.0 | 17.0 | 0.00 | 0.00 | 0.00 | 55 | 1014.4 |
| 20260902051337 | 87 | 135 | 7.0 | 17.0 | 0.00 | 0.00 | 0.00 | 55 | 1014.4 |
| 20260902050720 | 87 | 144 | 7.0 | 15.0 | 0.00 | 0.00 | 0.00 | 54 | 1014.5 |
| 20260902045713 | 87 | 139 | 6.0 | 15.0 | 0.00 | 0.00 | 0.00 | 54 | 1014.4 |
| 20260902045202 | 87 | 140 | 5.0 | 15.0 | 0.00 | 0.00 | 0.00 | 54 | 1014.5 |
| 20260902044652 | 88 | 151 | 5.0 | 15.0 | 0.00 | 0.00 | 0.00 | 54 | 1014.6 |
| 20260902044142 | 88 | 153 | 7.0 | 17.0 | 0.00 | 0.00 | 0.00 | 53 | 1014.5 |
| 20260902043643 | 88 | 139 | 8.0 | 17.0 | 0.00 | 0.00 | 0.00 | 53 | 1014.6 |
| 20260902043634 | 88 | 132 | 9.0 | 18.0 | 0.00 | 0.00 | 0.00 | 52 | 1014.4 |
| 20260902042623 | 89 | 96 | 9.0 | 18.0 | 0.00 | 0.00 | 0.00 | 52 | 1014.4 |
| 20260902042112 | 89 | 111 | 8.0 | 17.0 | 0.00 | 0.00 | 0.00 | 51 | 1014.3 |
| 20260902041603 | 89 | 132 | 8.0 | 18.0 | 0.00 | 0.00 | 0.00 | 50 | 1014.2 |
| 20260902041553 | 89 | 141 | 3.0 | 18.0 | 0.00 | 0.00 | 0.00 | 50 | 1014.2 |
| 20260902040543 | 89 | 143 | 1.0 | 5.0 | 0.00 | 0.00 | 0.00 | 49 | 1014.2 |
| 20260902040032 | 89 | 159 | 2.0 | 5.0 | 0.00 | 0.00 | 0.00 | 49 | 1014.1 |
| 20260902035521 | 90 | 149 | 1.0 | 5.0 | 0.00 | 0.00 | 0.00 | 49 | 1014.0 |
| 20260902035010 | 90 | 98 | 1.0 | 3.0 | 0.00 | 0.00 | 0.00 | 49 | 1014.1 |
| 20260902034501 | 90 | 128 | 1.0 | 5.0 | 0.00 | 0.00 | 0.00 | 49 | 1014.1 |
| 20260902034451 | 90 | 132 | 1.0 | 5.0 | 0.00 | 0.00 | 0.00 | 49 | 1014.1 |
| 20260902033942 | 90 | 132 | 1.0 | 4.0 | 0.00 | 0.00 | 0.00 | 48 | 1014.1 |
| 20260902032931 | 90 | 131 | 1.0 | 4.0 | 0.00 | 0.00 | 0.00 | 48 | 1014.1 |
| 20260902032421 | 90 | 139 | 1.0 | 4.0 | 0.00 | 0.00 | 0.00 | 48 | 1014.1 |
| 20260902031910 | 90 | 128 | 1.0 | 5.0 | 0.00 | 0.00 | 0.00 | 48 | 1014.0 |
| 20260902031401 | 90 | 121 | 1.0 | 5.0 | 0.00 | 0.00 | 0.00 | 48 | 1014.1 |
| 20260902030851 | 90 | 117 | 2.0 | 5.0 | 0.00 | 0.00 | 0.00 | 48 | 1014.0 |
| 20260902030341 | 91 | 133 | 1.0 | 5.0 | 0.00 | 0.00 | 0.00 | 47 | 1013.9 |
| 20260902025830 | 91 | 133 | 1.0 | 5.0 | 0.00 | 0.00 | 0.00 | 47 | 1013.8 |
| 20260902025322 | 91 | 93 | 1.0 | 4.0 | 0.00 | 0.00 | 0.00 | 47 | 1013.7 |
| 20260902024810 | 91 | 114 | 1.0 | 4.0 | 0.00 | 0.00 | 0.00 | 47 | 1013.7 |
| 20260902024301 | 91 | 136 | 2.0 | 4.0 | 0.00 | 0.00 | 0.00 | 47 | 1013.6 |
| 20260902023750 | 91 | 137 | 2.0 | 5.0 | 0.00 | 0.00 | 0.00 | 47 | 1013.5 |
| 20260902023742 | 91 | 141 | 1.0 | 5.0 | 0.00 | 0.00 | 0.00 | 46 | 1013.4 |
| 20260902023231 | 91 | 113 | 0.0 | 3.0 | 0.00 | 0.00 | 0.00 | 46 | 1013.3 |
| 20260902022223 | 92 | 112 | 0.0 | 3.0 | 0.00 | 0.00 | 0.00 | 46 | 1013.3 |
| 20260902022147 | 92 | 112 | 1.0 | 3.0 | 0.00 | 0.00 | 0.00 | 45 | 1013.2 |
| 20260902021145 | 92 | 112 | 1.0 | 3.0 | 0.00 | 0.00 | 0.00 | 45 | 1013.2 |
| 20260902020646 | 92 | 112 | 1.0 | 3.0 | 0.00 | 0.00 | 0.00 | 45 | 1013.1 |
| 20260902020136 | 92 | 110 | 1.0 | 3.0 | 0.00 | 0.00 | 0.00 | 45 | 1013.1 |
| 20260902020126 | 92 | 113 | 1.0 | 3.0 | 0.00 | 0.00 | 0.00 | 44 | 1013.0 |
| 20260902015108 | 92 | 143 | 1.0 | 4.0 | 0.00 | 0.00 | 0.00 | 44 | 1012.9 |
| 20260902015051 | 93 | 107 | 2.0 | 5.0 | 0.00 | 0.00 | 0.00 | 44 | 1013.0 |
| 20260902014050 | 93 | 85 | 2.0 | 5.0 | 0.00 | 0.00 | 0.00 | 43 | 1012.9 |
| 20260902013540 | 93 | 124 | 2.0 | 7.0 | 0.00 | 0.00 | 0.00 | 43 | 1012.8 |
| 20260902013527 | 93 | 127 | 2.0 | 7.0 | 0.00 | 0.00 | 0.00 | 43 | 1012.7 |
| 20260902012517 | 93 | 135 | 2.0 | 7.0 | 0.00 | 0.00 | 0.00 | 43 | 1012.7 |
| 20260902012009 | 93 | 96 | 2.0 | 7.0 | 0.00 | 0.00 | 0.00 | 43 | 1012.6 |
| 20260902011502 | 94 | 99 | 2.0 | 5.0 | 0.00 | 0.00 | 0.00 | 43 | 1012.6 |
| 20260902010959 | 94 | 101 | 2.0 | 6.0 | 0.00 | 0.00 | 0.00 | 43 | 1012.6 |
| 20260902010448 | 94 | 92 | 2.0 | 6.0 | 0.00 | 0.00 | 0.00 | 43 | 1012.5 |
| 20260902005940 | 94 | 81 | 2.0 | 6.0 | 0.00 | 0.00 | 0.00 | 42 | 1012.5 |
| 20260902005932 | 94 | 106 | 3.0 | 6.0 | 0.00 | 0.00 | 0.00 | 42 | 1012.5 |
| 20260902004924 | 94 | 113 | 3.0 | 7.0 | 0.00 | 0.00 | 0.00 | 42 | 1012.5 |
| 20260902004418 | 95 | 70 | 2.0 | 7.0 | 0.00 | 0.00 | 0.00 | 42 | 1012.5 |
| 20260902003908 | 95 | 171 | 3.0 | 7.0 | 0.00 | 0.00 | 0.00 | 42 | 1012.5 |
| 20260902003901 | 95 | 98 | 3.0 | 7.0 | 0.00 | 0.00 | 0.00 | 42 | 1012.5 |
| 20260902002855 | 95 | 109 | 3.0 | 7.0 | 0.00 | 0.00 | 0.00 | 42 | 1012.6 |
| 20260902002350 | 95 | 98 | 2.0 | 6.0 | 0.00 | 0.00 | 0.00 | 41 | 1012.6 |
| 20260902001848 | 96 | 102 | 3.0 | 7.0 | 0.00 | 0.00 | 0.00 | 41 | 1012.7 |
| 20260902001342 | 96 | 92 | 3.0 | 7.0 | 0.00 | 0.00 | 0.00 | 40 | 1012.7 |
| 20260902000835 | 96 | 74 | 3.0 | 8.0 | 0.00 | 0.00 | 0.00 | 40 | 1012.7 |
| 20260902000830 | 96 | 89 | 3.0 | 9.0 | 0.00 | 0.00 | 0.00 | 40 | 1012.8 |
| 20260901235829 | 96 | 97 | 3.0 | 9.0 | 0.00 | 0.00 | 0.00 | 40 | 1012.8 |
| 20260901235322 | 96 | 120 | 3.0 | 8.0 | 0.00 | 0.00 | 0.00 | 40 | 1012.8 |
| 20260901234818 | 96 | 86 | 3.0 | 9.0 | 0.00 | 0.00 | 0.00 | 40 | 1012.8 |
| 20260901234311 | 96 | 90 | 2.0 | 9.0 | 0.00 | 0.00 | 0.00 | 40 | 1012.9 |
| 20260901233806 | 96 | 87 | 3.0 | 14.0 | 0.00 | 0.00 | 0.00 | 40 | 1012.9 |
| 20260901233258 | 96 | 61 | 3.0 | 14.0 | 0.00 | 0.00 | 0.00 | 40 | 1012.9 |
| 20260901233251 | 96 | 93 | 4.0 | 13.0 | 0.00 | 0.00 | 0.00 | 40 | 1012.9 |
| 20260901232855 | 96 | 60 | 3.0 | 7.0 | 0.00 | 0.00 | 0.00 | 40 | 1012.9 |
| 20260901231743 | 96 | 119 | 5.0 | 13.0 | 0.00 | 0.00 | 0.00 | 40 | 1012.9 |
| 20260901231236 | 97 | 93 | 6.0 | 15.0 | 0.00 | 0.00 | 0.00 | 40 | 1012.9 |
| 20260901230730 | 98 | 73 | 6.0 | 15.0 | 0.00 | 0.00 | 0.00 | 38 | 1012.8 |
| 20260901230225 | 99 | 92 | 6.0 | 19.0 | 0.00 | 0.00 | 0.00 | 38 | 1012.8 |
| 20260901225719 | 99 | 65 | 6.0 | 19.0 | 0.00 | 0.00 | 0.00 | 37 | 1012.9 |
| 20260901225212 | 98 | 75 | 4.0 | 13.0 | 0.00 | 0.00 | 0.00 | 37 | 1012.8 |
| 20260901224702 | 99 | 153 | 2.0 | 6.0 | 0.00 | 0.00 | 0.00 | 36 | 1012.8 |
| 20260901224157 | 99 | 78 | 3.0 | 8.0 | 0.00 | 0.00 | 0.00 | 36 | 1012.8 |
| 20260901223655 | 98 | 161 | 4.0 | 10.0 | 0.00 | 0.00 | 0.00 | 37 | 1012.9 |
| 20260901223650 | 98 | 164 | 4.0 | 10.0 | 0.00 | 0.00 | 0.00 | 37 | 1012.9 |
| 20260901222640 | 98 | 91 | 5.0 | 10.0 | 0.00 | 0.00 | 0.00 | 37 | 1012.8 |
| 20260901222622 | 98 | 121 | 5.0 | 11.0 | 0.00 | 0.00 | 0.00 | 37 | 1012.9 |
| 20260901222225 | 98 | 109 | 5.0 | 11.0 | 0.00 | 0.00 | 0.00 | 36 | 1012.9 |
| 20260901221111 | 99 | 149 | 5.0 | 11.0 | 0.00 | 0.00 | 0.00 | 36 | 1012.9 |
| 20260901220612 | 99 | 151 | 5.0 | 11.0 | 0.00 | 0.00 | 0.00 | 36 | 1012.9 |
| 20260901220101 | 99 | 131 | 4.0 | 11.0 | 0.00 | 0.00 | 0.00 | 35 | 1012.9 |
| 20260901215552 | 99 | 153 | 4.0 | 14.0 | 0.00 | 0.00 | 0.00 | 36 | 1012.9 |
| 20260901215041 | 100 | 142 | 4.0 | 14.0 | 0.00 | 0.00 | 0.00 | 35 | 1013.0 |
| 20260901214523 | 99 | 43 | 5.0 | 17.0 | 0.00 | 0.00 | 0.00 | 36 | 1013.1 |
| 20260901214013 | 98 | 95 | 4.0 | 17.0 | 0.00 | 0.00 | 0.00 | 37 | 1013.2 |
| 20260901213503 | 98 | 42 | 3.0 | 7.0 | 0.00 | 0.00 | 0.00 | 37 | 1013.1 |
| 20260901212953 | 98 | 35 | 1.0 | 7.0 | 0.00 | 0.00 | 0.00 | 38 | 1013.2 |
| 20260901212443 | 97 | 76 | 1.0 | 4.0 | 0.00 | 0.00 | 0.00 | 37 | 1013.2 |
| 20260901211933 | 97 | 92 | 2.0 | 10.0 | 0.00 | 0.00 | 0.00 | 38 | 1013.4 |
| 20260901211925 | 98 | 92 | 2.0 | 10.0 | 0.00 | 0.00 | 0.00 | 37 | 1013.4 |
| 20260901210913 | 98 | 146 | 2.0 | 8.0 | 0.00 | 0.00 | 0.00 | 38 | 1013.4 |
| 20260901210403 | 98 | 92 | 3.0 | 8.0 | 0.00 | 0.00 | 0.00 | 37 | 1013.4 |
| 20260901205859 | 99 | 51 | 4.0 | 10.0 | 0.00 | 0.00 | 0.00 | 36 | 1013.5 |
| 20260901205349 | 97 | 107 | 4.0 | 11.0 | 0.00 | 0.00 | 0.00 | 38 | 1013.6 |
| 20260901204838 | 98 | 87 | 3.0 | 11.0 | 0.00 | 0.00 | 0.00 | 37 | 1013.6 |
| 20260901204829 | 99 | 42 | 2.0 | 9.0 | 0.00 | 0.00 | 0.00 | 37 | 1013.7 |
| 20260901203819 | 100 | 118 | 3.0 | 8.0 | 0.00 | 0.00 | 0.00 | 36 | 1013.6 |
| 20260901203309 | 99 | 35 | 3.0 | 9.0 | 0.00 | 0.00 | 0.00 | 37 | 1013.6 |
| 20260901202800 | 99 | 90 | 3.0 | 9.0 | 0.00 | 0.00 | 0.00 | 37 | 1013.7 |
| 20260901202249 | 99 | 97 | 4.0 | 10.0 | 0.00 | 0.00 | 0.00 | 37 | 1013.8 |
| 20260901201737 | 99 | 164 | 4.0 | 10.0 | 0.00 | 0.00 | 0.00 | 36 | 1013.9 |
| 20260901201227 | 100 | 95 | 3.0 | 10.0 | 0.00 | 0.00 | 0.00 | 37 | 1014.0 |
| 20260901200716 | 100 | 93 | 2.0 | 10.0 | 0.00 | 0.00 | 0.00 | 37 | 1014.0 |
| 20260901200207 | 99 | 71 | 3.0 | 10.0 | 0.00 | 0.00 | 0.00 | 37 | 1014.0 |
| 20260901195656 | 99 | 132 | 5.0 | 10.0 | 0.00 | 0.00 | 0.00 | 37 | 1014.1 |
| 20260901195145 | 100 | 136 | 4.0 | 10.0 | 0.00 | 0.00 | 0.00 | 37 | 1014.1 |
| 20260901194635 | 100 | 88 | 3.0 | 10.0 | 0.00 | 0.00 | 0.00 | 35 | 1014.2 |
| 20260901194124 | 99 | 64 | 4.0 | 14.0 | 0.00 | 0.00 | 0.00 | 38 | 1014.3 |
| 20260901193615 | 98 | 46 | 5.0 | 14.0 | 0.00 | 0.00 | 0.00 | 39 | 1014.4 |
| 20260901193606 | 96 | 14 | 4.0 | 12.0 | 0.00 | 0.00 | 0.00 | 41 | 1014.5 |
| 20260901192555 | 97 | 49 | 5.0 | 12.0 | 0.00 | 0.00 | 0.00 | 40 | 1014.7 |
| 20260901192546 | 98 | 82 | 4.0 | 12.0 | 0.00 | 0.00 | 0.00 | 39 | 1014.7 |
| 20260901191535 | 99 | 46 | 3.0 | 12.0 | 0.00 | 0.00 | 0.00 | 39 | 1014.7 |
| 20260901191026 | 99 | 117 | 3.0 | 10.0 | 0.00 | 0.00 | 0.00 | 38 | 1014.8 |
| 20260901190515 | 98 | 99 | 4.0 | 11.0 | 0.00 | 0.00 | 0.00 | 39 | 1014.9 |
| 20260901190006 | 98 | 165 | 5.0 | 12.0 | 0.00 | 0.00 | 0.00 | 40 | 1015.0 |
| 20260901185956 | 97 | 157 | 5.0 | 12.0 | 0.00 | 0.00 | 0.00 | 39 | 1015.1 |
| 20260901185446 | 97 | 128 | 4.0 | 8.0 | 0.00 | 0.00 | 0.00 | 40 | 1015.1 |
| 20260901184435 | 96 | 193 | 4.0 | 8.0 | 0.00 | 0.00 | 0.00 | 40 | 1015.2 |
| 20260901183926 | 98 | 119 | 5.0 | 11.0 | 0.00 | 0.00 | 0.00 | 39 | 1015.3 |
| 20260901183415 | 97 | 220 | 5.0 | 11.0 | 0.00 | 0.00 | 0.00 | 39 | 1015.5 |
| 20260901182905 | 98 | 123 | 4.0 | 10.0 | 0.00 | 0.00 | 0.00 | 39 | 1015.6 |
| 20260901182857 | 98 | 96 | 5.0 | 10.0 | 0.00 | 0.00 | 0.00 | 40 | 1015.6 |
| 20260901181845 | 97 | 140 | 5.0 | 13.0 | 0.00 | 0.00 | 0.00 | 40 | 1015.7 |
| 20260901181327 | 97 | 163 | 5.0 | 12.0 | 0.00 | 0.00 | 0.00 | 41 | 1015.7 |
| 20260901180817 | 96 | 177 | 4.0 | 12.0 | 0.00 | 0.00 | 0.00 | 41 | 1015.7 |
| 20260901180307 | 94 | 128 | 2.0 | 6.0 | 0.00 | 0.00 | 0.00 | 44 | 1015.9 |
| 20260901175757 | 95 | 75 | 3.0 | 7.0 | 0.00 | 0.00 | 0.00 | 43 | 1016.1 |
| 20260901175247 | 95 | 209 | 4.0 | 8.0 | 0.00 | 0.00 | 0.00 | 44 | 1016.1 |
| 20260901174737 | 94 | 148 | 3.0 | 8.0 | 0.00 | 0.00 | 0.00 | 44 | 1016.2 |
| 20260901174227 | 94 | 253 | 2.0 | 7.0 | 0.00 | 0.00 | 0.00 | 45 | 1016.3 |
| 20260901173717 | 95 | 83 | 3.0 | 9.0 | 0.00 | 0.00 | 0.00 | 44 | 1016.4 |
| 20260901173215 | 95 | 130 | 4.0 | 9.0 | 0.00 | 0.00 | 0.00 | 44 | 1016.5 |
| 20260901173206 | 96 | 161 | 4.0 | 9.0 | 0.00 | 0.00 | 0.00 | 44 | 1016.5 |
| 20260901172155 | 95 | 91 | 2.0 | 9.0 | 0.00 | 0.00 | 0.00 | 43 | 1016.5 |
| 20260901171645 | 94 | 150 | 2.0 | 9.0 | 0.00 | 0.00 | 0.00 | 46 | 1016.6 |
| 20260901171135 | 94 | 178 | 4.0 | 9.0 | 0.00 | 0.00 | 0.00 | 45 | 1016.6 |
| 20260901170625 | 95 | 182 | 4.0 | 9.0 | 0.00 | 0.00 | 0.00 | 44 | 1016.8 |
| 20260901170115 | 96 | 184 | 2.0 | 9.0 | 0.00 | 0.00 | 0.00 | 43 | 1016.8 |
| 20260901165605 | 96 | 127 | 3.0 | 6.0 | 0.00 | 0.00 | 0.00 | 45 | 1016.8 |
| 20260901165055 | 94 | 182 | 3.0 | 9.0 | 0.00 | 0.00 | 0.00 | 46 | 1016.9 |
| 20260901164537 | 95 | 184 | 1.0 | 9.0 | 0.00 | 0.00 | 0.00 | 45 | 1017.1 |
| 20260901164027 | 94 | 244 | 2.0 | 8.0 | 0.00 | 0.00 | 0.00 | 46 | 1017.1 |
| 20260901163517 | 93 | 139 | 3.0 | 11.0 | 0.00 | 0.00 | 0.00 | 46 | 1017.1 |
| 20260901163509 | 95 | 149 | 2.0 | 11.0 | 0.00 | 0.00 | 0.00 | 45 | 1017.1 |
| 20260901162958 | 95 | 216 | 2.0 | 7.0 | 0.00 | 0.00 | 0.00 | 47 | 1017.0 |
| 20260901161947 | 93 | 235 | 2.0 | 8.0 | 0.00 | 0.00 | 0.00 | 50 | 1017.1 |
| 20260901161437 | 92 | 247 | 2.0 | 9.0 | 0.00 | 0.00 | 0.00 | 49 | 1017.1 |
| 20260901160930 | 92 | 228 | 2.0 | 9.0 | 0.00 | 0.00 | 0.00 | 50 | 1017.1 |
| 20260901160424 | 92 | 227 | 2.0 | 5.0 | 0.00 | 0.00 | 0.00 | 50 | 1017.0 |
| 20260901160419 | 92 | 220 | 2.0 | 7.0 | 0.00 | 0.00 | 0.00 | 51 | 1017.0 |
| 20260901155359 | 92 | 216 | 2.0 | 7.0 | 0.00 | 0.00 | 0.00 | 51 | 1017.1 |
| 20260901155352 | 92 | 207 | 2.0 | 5.0 | 0.00 | 0.00 | 0.00 | 51 | 1017.1 |
| 20260901154341 | 92 | 224 | 2.0 | 8.0 | 0.00 | 0.00 | 0.00 | 51 | 1017.1 |
| 20260901153831 | 91 | 213 | 2.0 | 6.0 | 0.00 | 0.00 | 0.00 | 52 | 1017.0 |
| 20260901153321 | 91 | 208 | 2.0 | 6.0 | 0.00 | 0.00 | 0.00 | 52 | 1017.1 |
| 20260901152817 | 91 | 234 | 2.0 | 6.0 | 0.00 | 0.00 | 0.00 | 52 | 1017.0 |
| 20260901152812 | 91 | 279 | 2.0 | 6.0 | 0.00 | 0.00 | 0.00 | 53 | 1017.0 |
| 20260901151804 | 90 | 245 | 1.0 | 5.0 | 0.00 | 0.00 | 0.00 | 54 | 1017.0 |
| 20260901151259 | 89 | 201 | 1.0 | 4.0 | 0.00 | 0.00 | 0.00 | 56 | 1017.0 |
| 20260901150754 | 89 | 242 | 3.0 | 6.0 | 0.00 | 0.00 | 0.00 | 56 | 1017.0 |
| 20260901150252 | 89 | 281 | 3.0 | 7.0 | 0.00 | 0.00 | 0.00 | 57 | 1017.0 |
| 20260901145746 | 88 | 223 | 2.0 | 7.0 | 0.00 | 0.00 | 0.00 | 58 | 1017.1 |
| 20260901145245 | 88 | 158 | 2.0 | 6.0 | 0.00 | 0.00 | 0.00 | 57 | 1017.0 |
| 20260901145240 | 88 | 262 | 2.0 | 6.0 | 0.00 | 0.00 | 0.00 | 58 | 1017.1 |
| 20260901144731 | 87 | 216 | 2.0 | 6.0 | 0.00 | 0.00 | 0.00 | 59 | 1017.2 |
| 20260901143727 | 86 | 182 | 1.0 | 6.0 | 0.00 | 0.00 | 0.00 | 60 | 1017.2 |
| 20260901143722 | 87 | 134 | 2.0 | 7.0 | 0.00 | 0.00 | 0.00 | 60 | 1017.2 |
| 20260901142717 | 86 | 209 | 2.0 | 7.0 | 0.00 | 0.00 | 0.00 | 61 | 1017.2 |
| 20260901142213 | 85 | 226 | 2.0 | 9.0 | 0.00 | 0.00 | 0.00 | 62 | 1017.2 |
| 20260901141710 | 85 | 240 | 2.0 | 9.0 | 0.00 | 0.00 | 0.00 | 61 | 1017.3 |
| 20260901141205 | 85 | 205 | 2.0 | 8.0 | 0.00 | 0.00 | 0.00 | 62 | 1017.3 |
| 20260901140656 | 85 | 216 | 2.0 | 7.0 | 0.00 | 0.00 | 0.00 | 64 | 1017.3 |
| 20260901140153 | 84 | 201 | 2.0 | 7.0 | 0.00 | 0.00 | 0.00 | 64 | 1017.2 |
| 20260901135645 | 84 | 178 | 1.0 | 3.0 | 0.00 | 0.00 | 0.00 | 64 | 1017.2 |
| 20260901135140 | 83 | 196 | 1.0 | 4.0 | 0.00 | 0.00 | 0.00 | 65 | 1017.2 |
| 20260901134631 | 83 | 199 | 1.0 | 4.0 | 0.00 | 0.00 | 0.00 | 65 | 1017.2 |
| 20260901134123 | 82 | 209 | 1.0 | 4.0 | 0.00 | 0.00 | 0.00 | 66 | 1017.2 |
| 20260901133616 | 81 | 172 | 3.0 | 6.0 | 0.00 | 0.00 | 0.00 | 68 | 1017.2 |
| 20260901133611 | 81 | 198 | 2.0 | 6.0 | 0.00 | 0.00 | 0.00 | 67 | 1017.2 |
| 20260901132601 | 81 | 157 | 2.0 | 5.0 | 0.00 | 0.00 | 0.00 | 68 | 1017.1 |
| 20260901132054 | 80 | 166 | 3.0 | 6.0 | 0.00 | 0.00 | 0.00 | 68 | 1017.2 |
| 20260901131546 | 80 | 159 | 2.0 | 6.0 | 0.00 | 0.00 | 0.00 | 68 | 1017.1 |
| 20260901131038 | 80 | 142 | 2.0 | 5.0 | 0.00 | 0.00 | 0.00 | 68 | 1017.1 |
| 20260901130528 | 80 | 128 | 2.0 | 7.0 | 0.00 | 0.00 | 0.00 | 68 | 1017.0 |
| 20260901130020 | 80 | 165 | 1.0 | 7.0 | 0.00 | 0.00 | 0.00 | 68 | 1016.9 |
| 20260901125512 | 80 | 172 | 1.0 | 5.0 | 0.00 | 0.00 | 0.00 | 68 | 1016.8 |
| 20260901125001 | 80 | 166 | 2.0 | 8.0 | 0.00 | 0.00 | 0.00 | 68 | 1016.8 |
| 20260901124452 | 79 | 209 | 3.0 | 8.0 | 0.00 | 0.00 | 0.00 | 68 | 1016.7 |
| 20260901123949 | 79 | 149 | 2.0 | 7.0 | 0.00 | 0.00 | 0.00 | 68 | 1016.6 |
| 20260901123945 | 79 | 159 | 0.0 | 4.0 | 0.00 | 0.00 | 0.00 | 67 | 1016.6 |
| 20260901122935 | 79 | 267 | 1.0 | 4.0 | 0.00 | 0.00 | 0.00 | 67 | 1016.5 |
| 20260901122417 | 79 | 152 | 1.0 | 4.0 | 0.00 | 0.00 | 0.00 | 67 | 1016.4 |
| 20260901121906 | 79 | 162 | 0.0 | 3.0 | 0.00 | 0.00 | 0.00 | 67 | 1016.4 |
| 20260901121357 | 79 | 161 | 0.0 | 3.0 | 0.00 | 0.00 | 0.00 | 67 | 1016.3 |
| 20260901120846 | 79 | 161 | 0.0 | 3.0 | 0.00 | 0.00 | 0.00 | 67 | 1016.2 |
| 20260901120338 | 79 | 143 | 0.0 | 1.0 | 0.00 | 0.00 | 0.00 | 67 | 1016.1 |
| 20260901115827 | 80 | 143 | 0.0 | 1.0 | 0.00 | 0.00 | 0.00 | 66 | 1016.1 |
| 20260901115317 | 80 | 135 | 0.0 | 1.0 | 0.00 | 0.00 | 0.00 | 66 | 1016.1 |